^^
Saratoga-Weather Station Historical Data
Daily Summary for July 1, 2021 Units:  Metric    English   Both
Daily Weekly Monthly Yearly Custom
  High: Low: Average:
Temperature: 3.2 °C 1.7 °C 2.3 °C
Dew Point: 1.5 °C 0.6 °C 1.1 °C
Humidity: 95% 86% 92%
Wind Speed: 13km/h 0km/h 3km/h
Wind Gust: 12.9km/h - -
Wind- - West
Pressure: 1011.9 hPa 1004.1 hPa -
Precipitation: 0.2 mm    
Historical Graphs
 
 
Tabular Data for July 1, 2021
Time Temperature Dew Point Pressure Wind Wind Speed Wind Gust Humidity Rainfall Rate (Hourly) solar
00:02 2.1 °C 1.2 °C 1004.1 hPa WNW 11.1 km/h 12.9 km/h 94% 0.0 mm 0 W/m2
00:07 2.1 °C 1.2 °C 1004.1 hPa WNW 4.7 km/h 9.7 km/h 94% 0.0 mm 0 W/m2
00:12 2.1 °C 1.2 °C 1004.1 hPa NW 4.7 km/h 9.7 km/h 94% 0.0 mm 0 W/m2
00:17 2.1 °C 1.2 °C 1004.1 hPa WNW 3.2 km/h 6.4 km/h 94% 0.2 mm 0 W/m2
00:22 2.1 °C 1.2 °C 1004.1 hPa WNW 4.7 km/h 4.8 km/h 94% 0.2 mm 0 W/m2
00:27 2 °C 1.1 °C 1004.1 hPa WNW 4.7 km/h 12.9 km/h 94% 0.2 mm 0 W/m2
00:32 2.1 °C 1.4 °C 1004.1 hPa West 4.7 km/h 8 km/h 95% 0.2 mm 0 W/m2
00:37 2.1 °C 1.4 °C 1004.1 hPa West 9.7 km/h 9.7 km/h 95% 0.2 mm 0 W/m2
00:42 2 °C 1.1 °C 1004.1 hPa NW 11.1 km/h 11.3 km/h 94% 0.2 mm 0 W/m2
00:47 2 °C 1.1 °C 1004.1 hPa WNW 4.7 km/h 8 km/h 94% 0.2 mm 0 W/m2
00:52 2 °C 1.1 °C 1004.1 hPa NW 7.9 km/h 11.3 km/h 94% 0.2 mm 0 W/m2
00:57 2 °C 1.1 °C 1004.1 hPa NW 3.2 km/h 6.4 km/h 94% 0.2 mm 0 W/m2
01:02 2 °C 1.1 °C 1004.1 hPa West 3.2 km/h 4.8 km/h 94% 0.2 mm 0 W/m2
01:07 2.1 °C 1.2 °C 1004.1 hPa SW 1.4 km/h 4.8 km/h 94% 0.2 mm 0 W/m2
01:12 2.1 °C 1.2 °C 1004.1 hPa West 4.7 km/h 6.4 km/h 94% 0.2 mm 0 W/m2
01:17 2.1 °C 1.2 °C 1004.4 hPa WNW 3.2 km/h 4.8 km/h 94% 0.0 mm 0 W/m2
01:22 2.2 °C 1.3 °C 1004.4 hPa WNW 3.2 km/h 8 km/h 94% 0.0 mm 0 W/m2
01:27 2.2 °C 1.3 °C 1004.4 hPa West 3.2 km/h 4.8 km/h 94% 0.0 mm 0 W/m2
01:32 2.2 °C 1.3 °C 1004.4 hPa WSW 6.4 km/h 6.4 km/h 94% 0.0 mm 0 W/m2
01:37 2.2 °C 1.3 °C 1004.4 hPa West 1.4 km/h 8 km/h 94% 0.0 mm 0 W/m2
01:42 2.3 °C 1.4 °C 1004.4 hPa West 6.4 km/h 8 km/h 94% 0.0 mm 0 W/m2
01:47 2.3 °C 1.4 °C 1004.4 hPa WSW 1.4 km/h 3.2 km/h 94% 0.0 mm 0 W/m2
01:52 2.3 °C 1.4 °C 1004.4 hPa WSW 3.2 km/h 9.7 km/h 94% 0.0 mm 0 W/m2
01:57 2.3 °C 1.4 °C 1004.4 hPa West 6.4 km/h 9.7 km/h 94% 0.0 mm 0 W/m2
02:02 2.3 °C 1.4 °C 1004.4 hPa West 1.4 km/h 9.7 km/h 94% 0.0 mm 0 W/m2
02:07 2.3 °C 1.4 °C 1004.7 hPa West 4.7 km/h 11.3 km/h 94% 0.0 mm 0 W/m2
02:12 2.3 °C 1.4 °C 1004.7 hPa WSW 6.4 km/h 6.4 km/h 94% 0.0 mm 0 W/m2
02:17 2.3 °C 1.4 °C 1004.7 hPa WNW 4.7 km/h 11.3 km/h 94% 0.0 mm 0 W/m2
02:22 2.3 °C 1.4 °C 1004.7 hPa SSW 13 km/h 12.9 km/h 94% 0.0 mm 0 W/m2
02:27 2.3 °C 1.4 °C 1004.7 hPa West 4.7 km/h 11.3 km/h 94% 0.0 mm 0 W/m2
02:32 2.2 °C 1.3 °C 1004.7 hPa NW 4.7 km/h 9.7 km/h 94% 0.0 mm 0 W/m2
02:37 2.2 °C 1.3 °C 1004.7 hPa West 4.7 km/h 11.3 km/h 94% 0.0 mm 0 W/m2
02:42 2.2 °C 1.3 °C 1004.7 hPa WNW 3.2 km/h 11.3 km/h 94% 0.0 mm 0 W/m2
02:47 2.2 °C 1.3 °C 1004.7 hPa WNW 11.1 km/h 11.3 km/h 94% 0.0 mm 0 W/m2
02:52 2.2 °C 1.3 °C 1005.1 hPa West 9.7 km/h 12.9 km/h 94% 0.0 mm 0 W/m2
02:57 2.2 °C 1.3 °C 1005.1 hPa WNW 4.7 km/h 12.9 km/h 94% 0.0 mm 0 W/m2
03:02 2.2 °C 1.3 °C 1005.1 hPa West 4.7 km/h 11.3 km/h 94% 0.0 mm 0 W/m2
03:07 2.2 °C 1.3 °C 1005.1 hPa West 6.4 km/h 12.9 km/h 94% 0.0 mm 0 W/m2
03:12 2.2 °C 1.3 °C 1005.1 hPa West 1.4 km/h 6.4 km/h 94% 0.0 mm 0 W/m2
03:17 2.2 °C 1.2 °C 1005.1 hPa West 4.7 km/h 4.8 km/h 93% 0.0 mm 0 W/m2
03:22 2.2 °C 1.3 °C 1005.4 hPa WNW 3.2 km/h 8 km/h 94% 0.0 mm 0 W/m2
03:27 2.2 °C 1.3 °C 1005.4 hPa West 3.2 km/h 4.8 km/h 94% 0.0 mm 0 W/m2
03:32 2.2 °C 1.3 °C 1005.4 hPa West 3.2 km/h 11.3 km/h 94% 0.0 mm 0 W/m2
03:37 2.2 °C 1.2 °C 1005.4 hPa West 9.7 km/h 9.7 km/h 93% 0.0 mm 0 W/m2
03:42 2.2 °C 1.2 °C 1005.8 hPa West 1.4 km/h 4.8 km/h 93% 0.0 mm 0 W/m2
03:47 2.2 °C 1.2 °C 1005.8 hPa West 4.7 km/h 11.3 km/h 93% 0.0 mm 0 W/m2
03:52 2.2 °C 1.2 °C 1005.8 hPa WSW 4.7 km/h 11.3 km/h 93% 0.0 mm 0 W/m2
03:57 2.1 °C 1.1 °C 1005.8 hPa West 4.7 km/h 11.3 km/h 93% 0.0 mm 0 W/m2
04:03 2.2 °C 1.2 °C 1005.8 hPa WNW 4.7 km/h 11.3 km/h 93% 0.0 mm 0 W/m2
04:08 2.2 °C 1.2 °C 1005.8 hPa WNW 4.7 km/h 11.3 km/h 93% 0.0 mm 0 W/m2
04:13 2.1 °C 1.1 °C 1005.8 hPa West 4.7 km/h 9.7 km/h 93% 0.0 mm 0 W/m2
04:18 2.1 °C 1.1 °C 1005.8 hPa NW 4.7 km/h 6.4 km/h 93% 0.0 mm 0 W/m2
04:23 2.1 °C 1.1 °C 1005.8 hPa NW 9.7 km/h 9.7 km/h 93% 0.0 mm 0 W/m2
04:28 2.1 °C 1.1 °C 1005.8 hPa WNW 6.4 km/h 9.7 km/h 93% 0.0 mm 0 W/m2
04:33 2.1 °C 1.1 °C 1005.8 hPa West 4.7 km/h 6.4 km/h 93% 0.0 mm 0 W/m2
04:38 2.1 °C 1.1 °C 1005.8 hPa WSW 1.4 km/h 8 km/h 93% 0.0 mm 0 W/m2
04:43 2 °C 1 °C 1005.8 hPa WSW 6.4 km/h 6.4 km/h 93% 0.0 mm 0 W/m2
04:48 2 °C 1 °C 1005.8 hPa WSW 4.7 km/h 11.3 km/h 93% 0.0 mm 0 W/m2
04:53 2 °C 1 °C 1005.8 hPa West 3.2 km/h 9.7 km/h 93% 0.0 mm 0 W/m2
04:58 2 °C 1 °C 1005.8 hPa West 3.2 km/h 4.8 km/h 93% 0.0 mm 0 W/m2
05:03 2 °C 1 °C 1005.8 hPa WSW 3.2 km/h 4.8 km/h 93% 0.0 mm 0 W/m2
05:08 1.9 °C 0.9 °C 1005.8 hPa West 4.7 km/h 9.7 km/h 93% 0.0 mm 0 W/m2
05:13 1.9 °C 0.9 °C 1005.8 hPa West 6.4 km/h 9.7 km/h 93% 0.0 mm 0 W/m2
05:18 1.9 °C 0.9 °C 1005.8 hPa WNW 4.7 km/h 6.4 km/h 93% 0.0 mm 0 W/m2
05:23 1.9 °C 0.9 °C 1005.8 hPa WNW 7.9 km/h 8 km/h 93% 0.0 mm 0 W/m2
05:28 1.9 °C 0.9 °C 1005.8 hPa WSW 4.7 km/h 9.7 km/h 93% 0.0 mm 0 W/m2
05:33 1.9 °C 0.9 °C 1005.8 hPa West 4.7 km/h 6.4 km/h 93% 0.0 mm 0 W/m2
05:38 2 °C 0.8 °C 1005.8 hPa WSW 3.2 km/h 6.4 km/h 92% 0.0 mm 0 W/m2
05:43 2 °C 0.8 °C 1005.8 hPa WSW 4.7 km/h 12.9 km/h 92% 0.0 mm 0 W/m2
05:48 2 °C 0.8 °C 1005.8 hPa WNW 6.4 km/h 11.3 km/h 92% 0.0 mm 0 W/m2
05:53 2 °C 0.8 °C 1005.8 hPa WSW 9.7 km/h 11.3 km/h 92% 0.0 mm 0 W/m2
05:58 2 °C 0.8 °C 1005.8 hPa West 6.4 km/h 9.7 km/h 92% 0.0 mm 0 W/m2
06:03 2 °C 0.8 °C 1005.8 hPa West 9.7 km/h 12.9 km/h 92% 0.0 mm 0 W/m2
06:08 2.1 °C 0.9 °C 1005.8 hPa West 6.4 km/h 11.3 km/h 92% 0.0 mm 0 W/m2
06:13 2.1 °C 0.9 °C 1005.8 hPa West 3.2 km/h 12.9 km/h 92% 0.0 mm 0 W/m2
06:18 2 °C 0.8 °C 1006.1 hPa West 3.2 km/h 6.4 km/h 92% 0.0 mm 0 W/m2
06:23 2 °C 0.8 °C 1006.1 hPa West 6.4 km/h 8 km/h 92% 0.0 mm 0 W/m2
06:28 2 °C 0.8 °C 1006.1 hPa West 3.2 km/h 6.4 km/h 92% 0.0 mm 0 W/m2
06:33 2 °C 0.8 °C 1006.1 hPa WSW 1.4 km/h 4.8 km/h 92% 0.0 mm 0 W/m2
06:38 2 °C 0.8 °C 1006.1 hPa West 3.2 km/h 3.2 km/h 92% 0.0 mm 0 W/m2
06:43 1.9 °C 0.7 °C 1006.1 hPa West 3.2 km/h 6.4 km/h 92% 0.0 mm 0 W/m2
06:48 1.9 °C 0.7 °C 1006.1 hPa West 4.7 km/h 6.4 km/h 92% 0.0 mm 0 W/m2
06:53 1.9 °C 0.7 °C 1006.4 hPa WSW 3.2 km/h 6.4 km/h 92% 0.0 mm 0 W/m2
06:58 1.9 °C 0.7 °C 1006.4 hPa West 6.4 km/h 6.4 km/h 92% 0.0 mm 0 W/m2
07:03 1.9 °C 0.7 °C 1006.4 hPa SW 4.7 km/h 6.4 km/h 92% 0.0 mm 0 W/m2
07:08 1.9 °C 0.7 °C 1006.4 hPa West 3.2 km/h 8 km/h 92% 0.0 mm 0 W/m2
07:13 1.9 °C 0.7 °C 1006.4 hPa West 3.2 km/h 4.8 km/h 92% 0.0 mm 0 W/m2
07:18 1.9 °C 0.9 °C 1006.4 hPa West 3.2 km/h 8 km/h 93% 0.0 mm 0 W/m2
07:23 1.8 °C 0.6 °C 1006.8 hPa West 1.4 km/h 3.2 km/h 92% 0.0 mm 0 W/m2
07:28 1.8 °C 0.8 °C 1006.8 hPa WNW 4.7 km/h 6.4 km/h 93% 0.0 mm 0 W/m2
07:33 1.8 °C 0.8 °C 1006.8 hPa West 4.7 km/h 6.4 km/h 93% 0.0 mm 0 W/m2
07:38 1.8 °C 0.8 °C 1006.8 hPa WNW 6.4 km/h 11.3 km/h 93% 0.0 mm 0 W/m2
07:43 1.8 °C 0.8 °C 1007.1 hPa West 9.7 km/h 9.7 km/h 93% 0.0 mm 0 W/m2
07:48 1.8 °C 0.8 °C 1007.1 hPa West 3.2 km/h 11.3 km/h 93% 0.0 mm 0 W/m2
07:53 1.8 °C 0.8 °C 1007.1 hPa WNW 3.2 km/h 6.4 km/h 93% 0.0 mm 0 W/m2
07:58 1.8 °C 0.8 °C 1007.1 hPa WNW 1.4 km/h 9.7 km/h 93% 0.0 mm 0 W/m2
08:03 1.8 °C 0.8 °C 1007.1 hPa West 4.7 km/h 6.4 km/h 93% 0.0 mm 0 W/m2
08:08 1.8 °C 0.8 °C 1007.1 hPa West 3.2 km/h 9.7 km/h 93% 0.0 mm 0 W/m2
08:13 1.7 °C 0.7 °C 1007.5 hPa WNW 4.7 km/h 6.4 km/h 93% 0.0 mm 0 W/m2
08:18 1.7 °C 0.7 °C 1007.5 hPa West 4.7 km/h 9.7 km/h 93% 0.0 mm 0 W/m2
08:23 1.8 °C 0.8 °C 1007.5 hPa WNW 1.4 km/h 4.8 km/h 93% 0.0 mm 0 W/m2
08:28 1.7 °C 0.7 °C 1007.5 hPa West 4.7 km/h 6.4 km/h 93% 0.0 mm 0 W/m2
08:33 1.7 °C 0.7 °C 1007.5 hPa West 3.2 km/h 4.8 km/h 93% 0.0 mm 0 W/m2
08:38 1.7 °C 0.7 °C 1007.5 hPa WNW 1.4 km/h 6.4 km/h 93% 0.0 mm 0 W/m2
08:43 1.7 °C 0.7 °C 1007.5 hPa WSW 4.7 km/h 9.7 km/h 93% 0.0 mm 0 W/m2
08:48 1.7 °C 0.7 °C 1007.5 hPa WSW 4.7 km/h 6.4 km/h 93% 0.0 mm 5 W/m2
08:53 1.7 °C 0.7 °C 1007.5 hPa WSW 7.9 km/h 11.3 km/h 93% 0.0 mm 5 W/m2
08:58 1.8 °C 0.8 °C 1007.5 hPa WSW 4.7 km/h 6.4 km/h 93% 0.0 mm 5 W/m2
09:03 1.8 °C 0.8 °C 1007.5 hPa West 4.7 km/h 11.3 km/h 93% 0.0 mm 7 W/m2
09:08 1.8 °C 0.8 °C 1007.8 hPa WSW 3.2 km/h 6.4 km/h 93% 0.0 mm 9 W/m2
09:13 1.8 °C 0.8 °C 1007.8 hPa West 3.2 km/h 6.4 km/h 93% 0.0 mm 11 W/m2
09:18 1.8 °C 0.8 °C 1007.8 hPa West 3.2 km/h 9.7 km/h 93% 0.0 mm 12 W/m2
09:23 1.8 °C 0.8 °C 1007.8 hPa West 4.7 km/h 8 km/h 93% 0.0 mm 16 W/m2
09:28 1.8 °C 0.8 °C 1007.8 hPa WNW 4.7 km/h 6.4 km/h 93% 0.0 mm 19 W/m2
09:33 1.8 °C 0.8 °C 1007.8 hPa WSW 4.7 km/h 9.7 km/h 93% 0.0 mm 21 W/m2
09:38 1.8 °C 0.8 °C 1007.8 hPa WSW 4.7 km/h 11.3 km/h 93% 0.0 mm 21 W/m2
09:43 1.8 °C 0.8 °C 1007.8 hPa West 3.2 km/h 6.4 km/h 93% 0.0 mm 23 W/m2
09:49 1.8 °C 0.8 °C 1007.8 hPa West 3.2 km/h 11.3 km/h 93% 0.0 mm 23 W/m2
09:54 1.8 °C 0.8 °C 1008.1 hPa West 4.7 km/h 4.8 km/h 93% 0.0 mm 23 W/m2
09:59 1.9 °C 0.9 °C 1008.1 hPa WSW 4.7 km/h 6.4 km/h 93% 0.0 mm 25 W/m2
10:04 1.9 °C 0.9 °C 1008.1 hPa WSW 3.2 km/h 3.2 km/h 93% 0.0 mm 28 W/m2
10:09 1.9 °C 0.9 °C 1008.1 hPa Calm   1.6 km/h 93% 0.0 mm 28 W/m2
10:14 2 °C 1 °C 1008.1 hPa West 1.4 km/h 3.2 km/h 93% 0.0 mm 32 W/m2
10:19 2 °C 1 °C 1008.1 hPa Calm   3.2 km/h 93% 0.0 mm 35 W/m2
10:24 2 °C 1 °C 1008.1 hPa West 1.4 km/h 3.2 km/h 93% 0.0 mm 37 W/m2
10:29 2 °C 1 °C 1008.5 hPa West 1.4 km/h 1.6 km/h 93% 0.0 mm 39 W/m2
10:34 2.1 °C 1.1 °C 1008.5 hPa West 3.2 km/h 3.2 km/h 93% 0.0 mm 42 W/m2
10:39 2.1 °C 1.1 °C 1008.5 hPa West 3.2 km/h 4.8 km/h 93% 0.0 mm 42 W/m2
10:44 2.1 °C 1.1 °C 1008.5 hPa West 1.4 km/h 4.8 km/h 93% 0.0 mm 44 W/m2
10:49 2.1 °C 0.9 °C 1008.5 hPa West 1.4 km/h 6.4 km/h 92% 0.0 mm 49 W/m2
10:54 2.1 °C 0.9 °C 1008.5 hPa West 3.2 km/h 8 km/h 92% 0.0 mm 60 W/m2
10:59 2.1 °C 0.9 °C 1008.5 hPa West 4.7 km/h 6.4 km/h 92% 0.0 mm 67 W/m2
11:04 2.2 °C 1 °C 1008.5 hPa West 3.2 km/h 6.4 km/h 92% 0.0 mm 70 W/m2
11:09 2.2 °C 1 °C 1008.5 hPa WNW 4.7 km/h 4.8 km/h 92% 0.0 mm 76 W/m2
11:14 2.2 °C 1 °C 1008.8 hPa West 3.2 km/h 8 km/h 92% 0.0 mm 76 W/m2
11:19 2.3 °C 1.1 °C 1008.8 hPa WNW 1.4 km/h 4.8 km/h 92% 0.0 mm 76 W/m2
11:24 2.3 °C 1.1 °C 1008.8 hPa West 3.2 km/h 4.8 km/h 92% 0.0 mm 67 W/m2
11:29 2.3 °C 1.1 °C 1008.8 hPa West 3.2 km/h 9.7 km/h 92% 0.0 mm 65 W/m2
11:34 2.3 °C 1.1 °C 1008.8 hPa West 4.7 km/h 8 km/h 92% 0.0 mm 70 W/m2
11:39 2.3 °C 1.1 °C 1008.8 hPa West 4.7 km/h 6.4 km/h 92% 0.0 mm 72 W/m2
11:44 2.4 °C 1.2 °C 1008.5 hPa West 1.4 km/h 8 km/h 92% 0.0 mm 72 W/m2
11:49 2.4 °C 1.2 °C 1008.8 hPa West 4.7 km/h 4.8 km/h 92% 0.0 mm 74 W/m2
11:54 2.4 °C 1.2 °C 1008.8 hPa NW 1.4 km/h 6.4 km/h 92% 0.0 mm 77 W/m2
11:59 2.5 °C 1.3 °C 1008.8 hPa NW 1.4 km/h 4.8 km/h 92% 0.0 mm 76 W/m2
12:04 2.6 °C 1.4 °C 1008.8 hPa WNW 1.4 km/h 6.4 km/h 92% 0.0 mm 74 W/m2
12:09 2.6 °C 1.4 °C 1008.5 hPa NW 3.2 km/h 6.4 km/h 92% 0.0 mm 72 W/m2
12:14 2.6 °C 1.4 °C 1008.8 hPa WSW 4.7 km/h 9.7 km/h 92% 0.0 mm 81 W/m2
12:19 2.6 °C 1.3 °C 1008.8 hPa WNW 3.2 km/h 9.7 km/h 91% 0.0 mm 86 W/m2
12:24 2.6 °C 1.3 °C 1008.8 hPa West 9.7 km/h 9.7 km/h 91% 0.0 mm 86 W/m2
12:29 2.7 °C 1.4 °C 1008.5 hPa West 3.2 km/h 6.4 km/h 91% 0.0 mm 88 W/m2
12:34 2.7 °C 1.4 °C 1008.8 hPa West 6.4 km/h 6.4 km/h 91% 0.0 mm 88 W/m2
12:39 2.8 °C 1.5 °C 1008.5 hPa NW 1.4 km/h 6.4 km/h 91% 0.0 mm 90 W/m2
12:44 2.8 °C 1.5 °C 1008.5 hPa NW 3.2 km/h 8 km/h 91% 0.0 mm 88 W/m2
12:49 2.8 °C 1.3 °C 1008.5 hPa West 3.2 km/h 8 km/h 90% 0.0 mm 98 W/m2
12:54 2.8 °C 1.3 °C 1008.5 hPa WNW 4.7 km/h 6.4 km/h 90% 0.0 mm 113 W/m2
12:59 2.8 °C 1.3 °C 1008.5 hPa Calm   9.7 km/h 90% 0.0 mm 98 W/m2
13:04 2.9 °C 1.4 °C 1008.5 hPa WNW 3.2 km/h 4.8 km/h 90% 0.0 mm 98 W/m2
13:09 2.9 °C 1.4 °C 1008.5 hPa WNW 4.7 km/h 4.8 km/h 90% 0.0 mm 98 W/m2
13:14 2.9 °C 1.4 °C 1008.5 hPa West 6.4 km/h 11.3 km/h 90% 0.0 mm 91 W/m2
13:19 2.9 °C 1.4 °C 1008.5 hPa WNW 3.2 km/h 8 km/h 90% 0.0 mm 70 W/m2
13:24 2.9 °C 1.3 °C 1008.5 hPa NNW 1.4 km/h 11.3 km/h 89% 0.0 mm 58 W/m2
13:29 2.8 °C 1.2 °C 1008.5 hPa WNW 1.4 km/h 11.3 km/h 89% 0.0 mm 51 W/m2
13:34 2.8 °C 1.2 °C 1008.5 hPa NW 3.2 km/h 4.8 km/h 89% 0.0 mm 49 W/m2
13:39 2.8 °C 1.2 °C 1008.5 hPa West 4.7 km/h 11.3 km/h 89% 0.0 mm 63 W/m2
13:44 2.8 °C 1.2 °C 1008.5 hPa West 4.7 km/h 9.7 km/h 89% 0.0 mm 77 W/m2
13:49 2.8 °C 1.2 °C 1008.5 hPa West 3.2 km/h 6.4 km/h 89% 0.0 mm 88 W/m2
13:54 2.8 °C 1.2 °C 1008.5 hPa WNW 3.2 km/h 8 km/h 89% 0.0 mm 83 W/m2
13:59 2.9 °C 1.3 °C 1008.5 hPa West 4.7 km/h 6.4 km/h 89% 0.0 mm 74 W/m2
14:04 2.9 °C 1.3 °C 1008.5 hPa NW 1.4 km/h 4.8 km/h 89% 0.0 mm 56 W/m2
14:09 2.9 °C 1.3 °C 1008.5 hPa NW 3.2 km/h 3.2 km/h 89% 0.0 mm 54 W/m2
14:14 3 °C 1.4 °C 1008.5 hPa WSW 3.2 km/h 6.4 km/h 89% 0.0 mm 63 W/m2
14:19 3 °C 1.2 °C 1008.5 hPa WNW 1.4 km/h 4.8 km/h 88% 0.0 mm 81 W/m2
14:24 3 °C 1.2 °C 1008.5 hPa WNW 4.7 km/h 9.7 km/h 88% 0.0 mm 84 W/m2
14:29 3 °C 1.2 °C 1008.5 hPa West 1.4 km/h 6.4 km/h 88% 0.0 mm 91 W/m2
14:34 3.1 °C 1.3 °C 1008.5 hPa WNW 4.7 km/h 6.4 km/h 88% 0.0 mm 86 W/m2
14:39 3.1 °C 1.3 °C 1008.8 hPa WNW 3.2 km/h 4.8 km/h 88% 0.0 mm 83 W/m2
14:44 3.1 °C 1.3 °C 1008.8 hPa WNW 3.2 km/h 4.8 km/h 88% 0.0 mm 97 W/m2
14:49 3.1 °C 1.3 °C 1008.8 hPa West 1.4 km/h 4.8 km/h 88% 0.0 mm 102 W/m2
14:54 3.1 °C 1.3 °C 1008.8 hPa West 1.4 km/h 4.8 km/h 88% 0.0 mm 97 W/m2
14:59 3.1 °C 1.3 °C 1008.8 hPa West 3.2 km/h 3.2 km/h 88% 0.0 mm 88 W/m2
15:04 3.2 °C 1.4 °C 1008.8 hPa Calm   3.2 km/h 88% 0.0 mm 83 W/m2
15:09 3.2 °C 1.4 °C 1008.8 hPa WNW 3.2 km/h 4.8 km/h 88% 0.0 mm 79 W/m2
15:14 3.2 °C 1.2 °C 1008.8 hPa WNW 4.7 km/h 8 km/h 87% 0.0 mm 69 W/m2
15:19 3.2 °C 1.2 °C 1008.8 hPa WNW 3.2 km/h 6.4 km/h 87% 0.0 mm 63 W/m2
15:24 3.2 °C 1.2 °C 1008.8 hPa NW 4.7 km/h 8 km/h 87% 0.0 mm 54 W/m2
15:29 3.2 °C 1.1 °C 1008.8 hPa Calm   6.4 km/h 86% 0.0 mm 51 W/m2
15:34 3.2 °C 1.1 °C 1009.1 hPa West 4.7 km/h 9.7 km/h 86% 0.0 mm 47 W/m2
15:39 3.2 °C 1.2 °C 1009.1 hPa NNW 4.7 km/h 4.8 km/h 87% 0.0 mm 40 W/m2
15:44 3.2 °C 1.1 °C 1009.1 hPa West 3.2 km/h 6.4 km/h 86% 0.0 mm 37 W/m2
15:49 3.2 °C 1.1 °C 1009.1 hPa NW 3.2 km/h 3.2 km/h 86% 0.0 mm 28 W/m2
15:54 3.2 °C 1.1 °C 1009.1 hPa West 1.4 km/h 4.8 km/h 86% 0.0 mm 30 W/m2
15:59 3.2 °C 1.2 °C 1009.1 hPa West 4.7 km/h 6.4 km/h 87% 0.0 mm 32 W/m2
16:04 3.1 °C 1.1 °C 1009.1 hPa West 4.7 km/h 4.8 km/h 87% 0.0 mm 28 W/m2
16:09 3.1 °C 1.1 °C 1009.1 hPa West 3.2 km/h 3.2 km/h 87% 0.0 mm 28 W/m2
16:14 3 °C 1 °C 1009.1 hPa NW 3.2 km/h 6.4 km/h 87% 0.0 mm 25 W/m2
16:19 2.9 °C 1 °C 1009.1 hPa WSW 3.2 km/h 4.8 km/h 87% 0.0 mm 19 W/m2
16:24 2.9 °C 1 °C 1009.1 hPa NW 1.4 km/h 3.2 km/h 87% 0.0 mm 16 W/m2
16:29 2.9 °C 1 °C 1009.1 hPa NW 3.2 km/h 3.2 km/h 87% 0.0 mm 12 W/m2
16:34 2.8 °C 0.9 °C 1009.1 hPa NW 1.4 km/h 3.2 km/h 87% 0.0 mm 11 W/m2
16:39 2.8 °C 0.9 °C 1009.5 hPa Calm   1.6 km/h 87% 0.0 mm 9 W/m2
16:44 2.8 °C 0.9 °C 1009.5 hPa Calm   1.6 km/h 87% 0.0 mm 0 W/m2
16:49 2.7 °C 0.9 °C 1009.5 hPa Calm   1.6 km/h 88% 0.0 mm 0 W/m2
16:54 2.7 °C 1.1 °C 1009.5 hPa Calm     89% 0.0 mm 0 W/m2
16:59 2.7 °C 1.1 °C 1009.5 hPa Calm   1.6 km/h 89% 0.0 mm 0 W/m2
17:04 2.7 °C 1.2 °C 1009.5 hPa Calm     90% 0.0 mm 0 W/m2
17:10 2.6 °C 1.1 °C 1009.5 hPa Calm     90% 0.0 mm 0 W/m2
17:15 2.6 °C 1.3 °C 1009.8 hPa NW 1.4 km/h 1.6 km/h 91% 0.0 mm 0 W/m2
17:20 2.6 °C 1.3 °C 1009.8 hPa Calm     91% 0.0 mm 0 W/m2
17:25 2.6 °C 1.4 °C 1009.8 hPa Calm     92% 0.0 mm 0 W/m2
17:30 2.5 °C 1.3 °C 1009.8 hPa Calm   1.6 km/h 92% 0.0 mm 0 W/m2
17:35 2.4 °C 1.2 °C 1009.8 hPa Calm   1.6 km/h 92% 0.0 mm 0 W/m2
17:40 2.4 °C 1.2 °C 1009.8 hPa Calm     92% 0.0 mm 0 W/m2
17:45 2.4 °C 1.4 °C 1009.8 hPa Calm     93% 0.0 mm 0 W/m2
17:50 2.3 °C 1.3 °C 1009.8 hPa Calm     93% 0.0 mm 0 W/m2
17:55 2.3 °C 1.3 °C 1009.8 hPa Calm     93% 0.0 mm 0 W/m2
18:00 2.3 °C 1.3 °C 1009.8 hPa Calm     93% 0.0 mm 0 W/m2
18:05 2.3 °C 1.3 °C 1009.8 hPa Calm     93% 0.0 mm 0 W/m2
18:10 2.3 °C 1.3 °C 1010.2 hPa Calm   1.6 km/h 93% 0.0 mm 0 W/m2
18:15 2.2 °C 1.2 °C 1009.8 hPa Calm     93% 0.0 mm 0 W/m2
18:20 2.2 °C 1.2 °C 1009.8 hPa Calm   1.6 km/h 93% 0.0 mm 0 W/m2
18:25 2.2 °C 1.2 °C 1010.2 hPa Calm     93% 0.0 mm 0 W/m2
18:30 2.1 °C 1.1 °C 1010.2 hPa NW 3.2 km/h 3.2 km/h 93% 0.0 mm 0 W/m2
18:35 2.1 °C 1.1 °C 1009.8 hPa NW 3.2 km/h 3.2 km/h 93% 0.0 mm 0 W/m2
18:40 2.1 °C 0.9 °C 1010.2 hPa West 1.4 km/h 3.2 km/h 92% 0.0 mm 0 W/m2
18:45 2.1 °C 0.9 °C 1010.2 hPa WNW 1.4 km/h 4.8 km/h 92% 0.0 mm 0 W/m2
18:50 2.1 °C 0.8 °C 1010.2 hPa West 3.2 km/h 3.2 km/h 91% 0.0 mm 0 W/m2
18:55 2.2 °C 0.9 °C 1010.2 hPa West 3.2 km/h 6.4 km/h 91% 0.0 mm 0 W/m2
19:00 2.2 °C 0.9 °C 1010.2 hPa West 1.4 km/h 4.8 km/h 91% 0.0 mm 0 W/m2
19:05 2.2 °C 0.9 °C 1010.2 hPa West 4.7 km/h 6.4 km/h 91% 0.0 mm 0 W/m2
19:10 2.2 °C 0.7 °C 1010.2 hPa West 3.2 km/h 4.8 km/h 90% 0.0 mm 0 W/m2
19:15 2.2 °C 0.7 °C 1010.2 hPa West 4.7 km/h 4.8 km/h 90% 0.0 mm 0 W/m2
19:20 2.2 °C 0.7 °C 1010.2 hPa West 1.4 km/h 4.8 km/h 90% 0.0 mm 0 W/m2
19:25 2.2 °C 0.9 °C 1010.2 hPa Calm   3.2 km/h 91% 0.0 mm 0 W/m2
19:30 2.2 °C 0.9 °C 1010.5 hPa Calm   3.2 km/h 91% 0.0 mm 0 W/m2
19:35 2.2 °C 0.9 °C 1010.5 hPa Calm     91% 0.0 mm 0 W/m2
19:40 2.2 °C 0.9 °C 1010.5 hPa Calm   1.6 km/h 91% 0.0 mm 0 W/m2
19:45 2.2 °C 0.9 °C 1010.5 hPa Calm   1.6 km/h 91% 0.0 mm 0 W/m2
19:50 2.2 °C 0.9 °C 1010.5 hPa Calm     91% 0.0 mm 0 W/m2
19:55 2.2 °C 0.9 °C 1010.5 hPa Calm     91% 0.0 mm 0 W/m2
20:00 2.2 °C 0.9 °C 1010.5 hPa Calm   3.2 km/h 91% 0.0 mm 0 W/m2
20:06 2.2 °C 0.9 °C 1010.5 hPa Calm     91% 0.0 mm 0 W/m2
20:11 2.2 °C 0.9 °C 1010.5 hPa Calm     91% 0.0 mm 0 W/m2
20:16 2.2 °C 1 °C 1010.8 hPa Calm     92% 0.0 mm 0 W/m2
20:21 2.1 °C 0.9 °C 1010.8 hPa Calm     92% 0.0 mm 0 W/m2
20:26 2.1 °C 0.9 °C 1010.8 hPa Calm     92% 0.0 mm 0 W/m2
20:31 2.1 °C 0.9 °C 1010.8 hPa Calm     92% 0.0 mm 0 W/m2
20:36 2.1 °C 0.9 °C 1010.8 hPa Calm     92% 0.0 mm 0 W/m2
20:41 2 °C 1 °C 1010.8 hPa Calm     93% 0.0 mm 0 W/m2
20:46 2 °C 1 °C 1010.8 hPa Calm     93% 0.0 mm 0 W/m2
20:51 1.9 °C 0.9 °C 1011.2 hPa Calm     93% 0.0 mm 0 W/m2
20:56 1.9 °C 0.9 °C 1011.2 hPa Calm     93% 0.0 mm 0 W/m2
21:01 1.9 °C 0.9 °C 1011.2 hPa Calm     93% 0.0 mm 0 W/m2
21:06 1.9 °C 0.9 °C 1011.2 hPa Calm     93% 0.0 mm 0 W/m2
21:11 1.9 °C 1 °C 1011.2 hPa Calm     94% 0.0 mm 0 W/m2
21:16 1.9 °C 1 °C 1011.2 hPa Calm     94% 0.0 mm 0 W/m2
21:21 2 °C 1.1 °C 1011.2 hPa Calm     94% 0.0 mm 0 W/m2
21:26 2 °C 1.1 °C 1011.2 hPa Calm     94% 0.0 mm 0 W/m2
21:31 2 °C 1.1 °C 1011.2 hPa Calm     94% 0.0 mm 0 W/m2
21:36 1.9 °C 1 °C 1011.2 hPa Calm     94% 0.0 mm 0 W/m2
21:41 1.9 °C 1 °C 1011.2 hPa Calm     94% 0.0 mm 0 W/m2
21:46 1.9 °C 1 °C 1011.5 hPa Calm     94% 0.0 mm 0 W/m2
21:51 2 °C 1.1 °C 1011.5 hPa Calm     94% 0.0 mm 0 W/m2
21:56 2 °C 1.1 °C 1011.5 hPa Calm     94% 0.0 mm 0 W/m2
22:01 2 °C 1.1 °C 1011.5 hPa Calm     94% 0.0 mm 0 W/m2
22:06 2 °C 1.1 °C 1011.5 hPa Calm   1.6 km/h 94% 0.0 mm 0 W/m2
22:11 2 °C 1.1 °C 1011.5 hPa Calm     94% 0.0 mm 0 W/m2
22:16 2.1 °C 1.2 °C 1011.5 hPa Calm     94% 0.0 mm 0 W/m2
22:21 2.1 °C 1.2 °C 1011.5 hPa Calm   3.2 km/h 94% 0.0 mm 0 W/m2
22:26 2.1 °C 1.2 °C 1011.5 hPa Calm   1.6 km/h 94% 0.0 mm 0 W/m2
22:31 2.1 °C 1.2 °C 1011.5 hPa Calm   3.2 km/h 94% 0.0 mm 0 W/m2
22:36 2.1 °C 1.2 °C 1011.5 hPa WNW 3.2 km/h 3.2 km/h 94% 0.0 mm 0 W/m2
22:41 2.1 °C 1.2 °C 1011.5 hPa Calm   3.2 km/h 94% 0.0 mm 0 W/m2
22:46 2.2 °C 1.3 °C 1011.5 hPa WNW 1.4 km/h 1.6 km/h 94% 0.0 mm 0 W/m2
22:51 2.2 °C 1.3 °C 1011.5 hPa Calm   3.2 km/h 94% 0.0 mm 0 W/m2
22:56 2.2 °C 1.3 °C 1011.5 hPa Calm     94% 0.0 mm 0 W/m2
23:01 2.2 °C 1.3 °C 1011.5 hPa Calm     94% 0.0 mm 0 W/m2
23:06 2.2 °C 1.3 °C 1011.9 hPa Calm     94% 0.0 mm 0 W/m2
23:11 2.2 °C 1.3 °C 1011.5 hPa Calm     94% 0.0 mm 0 W/m2
23:16 2.2 °C 1.3 °C 1011.9 hPa Calm     94% 0.0 mm 0 W/m2
23:21 2.2 °C 1.3 °C 1011.5 hPa Calm   1.6 km/h 94% 0.0 mm 0 W/m2
23:26 2.2 °C 1.3 °C 1011.9 hPa NNE 1.4 km/h 1.6 km/h 94% 0.0 mm 0 W/m2
23:31 2.2 °C 1.3 °C 1011.9 hPa East 3.2 km/h 3.2 km/h 94% 0.0 mm 0 W/m2
23:36 2.2 °C 1.3 °C 1011.9 hPa Calm     94% 0.0 mm 0 W/m2
23:41 2.2 °C 1.2 °C 1011.9 hPa Calm     93% 0.0 mm 0 W/m2
23:46 2.2 °C 1.2 °C 1011.9 hPa Calm     93% 0.0 mm 0 W/m2
23:51 2.2 °C 1.2 °C 1011.9 hPa Calm     93% 0.0 mm 0 W/m2
23:56 2.2 °C 1.2 °C 1011.9 hPa Calm     93% 0.0 mm 0 W/m2
Juneau County Weather
Compliments of Weather Underground - 4 mb